Location: Central Falls
(41.8900°N, 71.3929°W)
Time: 11:44:48
(UTC+00:00)

A-11 Canister half - Pass Details

Date: 05 December 2023
Orbit: 1526 x 1682 km, 47.3° (Epoch: 20 February)

Event Time Altitude Azimuth Distance (km) Brightness Sun altitude
Rises 02:26:56 0° 272° (W) 4,932 12.1 -56.7°
Reaches altitude 10° 02:30:11 10° 275° (W) 3,940 11.5 -57.3°
Enters shadow 02:33:06 22° 281° (W) 3,087 10.8 -57.7°
Maximum altitude 02:40:15 65° 357° (N) 1,797 - -58.9°
Drops below altitude 10° 02:50:06 10° 79° (E) 3,852 - -60.5°
Sets 02:53:14 0° 82° (E) 4,817 - -61.0°
